FENGYUN 1C DEB, 31634

Orbit data source: Space-Track

FENGYUN 1C DEB, 31634 is space debris in SSO originally from a launch on Mon, 10 May 1999 UTC launched from the Taiyaun Space Center, China (TSC). Fengyun 1C debris stems from the Chinese weather satellite Fengyun-1C, which was intentionally destroyed by a Chinese anti-satellite missile in 2007. This event dramatically increased the amount of space debris, with thousands of trackable fragments posing hazards to satellites and human spaceflight. The Fengyun 1C debris cloud has become a focal point in discussions about space sustainability and the need for international regulations to prevent the creation of new debris.

Loading next visibility...
Identifier
31634, 1999-025CAQ
Orbit
SSO
Country
Flag of CNCN / PRC
Related business
Manufacturer
Unknown
Mission
Spacecraft
Bus & Motor
Unknown
Mass
Unknown
Launch date (UTC)
1999-05-10 (26 years ago)
Launch vehicle
Unknown
Launch site
Taiyaun Space Center, China (TSC)
Object type
Payload
Rocket body
Debris
Shape & HBR
Unknown shape, 0.1 m
Radar Cross Section
Small (<0.1 m²)

Expand to show TLE details & history
Last TLE update: 3 days ago

TLE from 3 days ago
0 FENGYUN 1C DEB
1 31634U 99025CAQ 25306.88922961  .00000351  00000-0  28769-3 0  9997
2 31634  99.3724 352.7955 0090584 265.6940  93.3865 13.94616770559688
Epoch: 2025-11-02T21:20Z
TLE epoch observation values (Epoch: 2025-11-02T21:20:29.438Z)
Latitude
-0.00005°
Longitude
-9.72563°
Altitude
919.852 km
Speed
7.39 km/s
True Right ascension
23h 31m 10s
True Declination
0° 00' 00"
Sunlit
Object was in full shadow at epoch
Visualization orbit readout
Latitude
Unknown
Longitude
Unknown
Altitude
Unknown
Speed
Unknown
Apparent Right ascension
Unknown
Apparent Declination
Unknown
Sunlit
N/A
Visualization observer readout
Local Sidereal Time
09:40:15
Azimuth
Unknown
Elevation
Unknown
Doppler factor
Unknown
Orbital elements
Apogee altitude
975.737 km
Perigee altitude
843.705 km
Semi-major axis
7,287.858 km
Eccentricity
0.00906
Inclination
99.3724°
RAAN
352.7955°
Arg. of periapsis
265.694°
True anomaly
94.42195°
Mean anomaly
93.3865°
Eccentric anomaly
93.9043°
Mean motion
3.48854 °/min
Orbital period
103.2 mins
BSTAR
0.00028769
Loading maneuver chart data...
Computing Atmospheric mass density...

Documentation

Showing up to 5 results
|